Year,Month,Day,Hour,Minute,Value (Times are PST for temperature in C)
2015,03,01,00,00,5.10
2015,03,01,00,01,4.90
2015,03,01,00,02,4.90
2015,03,01,00,03,4.90
2015,03,01,00,04,4.80
2015,03,01,00,05,4.80
2015,03,01,00,06,4.80
2015,03,01,00,07,4.80
2015,03,01,00,08,4.80
2015,03,01,00,09,4.80
2015,03,01,00,10,4.70
2015,03,01,00,11,4.70
2015,03,01,00,12,4.70
2015,03,01,00,13,4.70
2015,03,01,00,14,4.70
2015,03,01,00,15,4.70
2015,03,01,00,16,4.60
2015,03,01,00,17,4.60
2015,03,01,00,18,4.60
2015,03,01,00,19,4.60
2015,03,01,00,20,4.60
2015,03,01,00,21,4.60
2015,03,01,00,22,4.60
2015,03,01,00,23,4.60
2015,03,01,00,24,4.60
2015,03,01,00,25,4.60
2015,03,01,00,26,4.50
2015,03,01,00,27,4.50
2015,03,01,00,28,4.50
2015,03,01,00,29,4.50
2015,03,01,00,30,4.50
2015,03,01,00,31,4.50
2015,03,01,00,32,4.50
2015,03,01,00,33,4.40
2015,03,01,00,34,4.40
2015,03,01,00,35,4.40
2015,03,01,00,36,4.30
2015,03,01,00,37,4.30
2015,03,01,00,38,4.20
2015,03,01,00,39,4.20
2015,03,01,00,40,4.20
2015,03,01,00,41,4.20
2015,03,01,00,42,4.20
2015,03,01,00,43,4.30
2015,03,01,00,44,4.30
2015,03,01,00,45,4.40
2015,03,01,00,46,4.40
2015,03,01,00,47,4.50
2015,03,01,00,48,4.50
2015,03,01,00,49,4.50
2015,03,01,00,50,4.50
2015,03,01,00,51,4.60
2015,03,01,00,52,4.60
2015,03,01,00,53,4.60
2015,03,01,00,54,4.60
2015,03,01,00,55,4.60
2015,03,01,00,56,4.60
2015,03,01,00,57,4.60
2015,03,01,00,58,4.60
2015,03,01,00,59,4.60
2015,03,01,01,00,4.60
2015,03,01,01,01,4.60
2015,03,01,01,02,4.60
2015,03,01,01,03,4.60
2015,03,01,01,04,4.60
2015,03,01,01,05,4.60
2015,03,01,01,06,4.60
2015,03,01,01,07,4.60
2015,03,01,01,08,4.60
2015,03,01,01,09,4.60
2015,03,01,01,10,4.60
2015,03,01,01,11,4.60
2015,03,01,01,12,4.60
2015,03,01,01,13,4.60
2015,03,01,01,14,4.60
2015,03,01,01,15,4.60
2015,03,01,01,16,4.60
2015,03,01,01,17,4.60
2015,03,01,01,18,4.60
2015,03,01,01,19,4.60
2015,03,01,01,20,4.60
2015,03,01,01,21,4.60
2015,03,01,01,22,4.60
2015,03,01,01,23,4.60
2015,03,01,01,24,4.60
2015,03,01,01,25,4.60
2015,03,01,01,26,4.60
2015,03,01,01,27,4.60
2015,03,01,01,28,4.60
2015,03,01,01,29,4.60
2015,03,01,01,30,4.60
2015,03,01,01,31,4.60
2015,03,01,01,32,4.60
2015,03,01,01,33,4.60
2015,03,01,01,34,4.60
2015,03,01,01,35,4.60
2015,03,01,01,36,4.60
2015,03,01,01,37,4.60
2015,03,01,01,38,4.60
2015,03,01,01,39,4.60
2015,03,01,01,40,4.60
2015,03,01,01,41,4.60
2015,03,01,01,42,4.60
2015,03,01,01,43,4.60
2015,03,01,01,44,4.60
2015,03,01,01,45,4.60
2015,03,01,01,46,4.60
2015,03,01,01,47,4.60
2015,03,01,01,48,4.60
2015,03,01,01,49,4.60
2015,03,01,01,50,4.60
2015,03,01,01,51,4.60
2015,03,01,01,52,4.60
2015,03,01,01,53,4.60
2015,03,01,01,54,4.60
2015,03,01,01,55,4.60
2015,03,01,01,56,4.60
2015,03,01,01,57,4.60
2015,03,01,01,58,4.60
2015,03,01,01,59,4.60
2015,03,01,02,00,4.60
2015,03,01,02,01,4.60
2015,03,01,02,02,4.60
2015,03,01,02,03,4.60
2015,03,01,02,04,4.60
2015,03,01,02,05,4.60
2015,03,01,02,06,4.60
2015,03,01,02,07,4.60
2015,03,01,02,08,4.60
2015,03,01,02,09,4.60
2015,03,01,02,10,4.60
2015,03,01,02,11,4.60
2015,03,01,02,12,4.60
2015,03,01,02,13,4.60
2015,03,01,02,14,4.60
2015,03,01,02,15,4.70
2015,03,01,02,16,4.70
2015,03,01,02,17,4.70
2015,03,01,02,18,4.70
2015,03,01,02,19,4.70
2015,03,01,02,20,4.70
2015,03,01,02,21,4.70
2015,03,01,02,22,4.80
2015,03,01,02,23,4.80
2015,03,01,02,24,4.80
2015,03,01,02,25,4.80
2015,03,01,02,26,4.80
2015,03,01,02,27,4.90
2015,03,01,02,28,4.90
2015,03,01,02,29,4.90
2015,03,01,02,30,5.00
2015,03,01,02,31,5.10
2015,03,01,02,32,5.10
2015,03,01,02,33,5.10
2015,03,01,02,34,5.10
2015,03,01,02,35,5.10
2015,03,01,02,36,5.10
2015,03,01,02,37,5.10
2015,03,01,02,38,5.00
2015,03,01,02,39,4.90
2015,03,01,02,40,4.90
2015,03,01,02,41,4.90
2015,03,01,02,42,4.90
2015,03,01,02,43,4.90
2015,03,01,02,44,4.90
2015,03,01,02,45,4.90
2015,03,01,02,46,4.90
2015,03,01,02,47,4.90
2015,03,01,02,48,4.90
2015,03,01,02,49,4.90
2015,03,01,02,50,4.90
2015,03,01,02,51,4.90
2015,03,01,02,52,4.90
2015,03,01,02,53,4.80
2015,03,01,02,54,4.80
2015,03,01,02,55,4.80
2015,03,01,02,56,4.80
2015,03,01,02,57,4.80
2015,03,01,02,58,4.70
2015,03,01,02,59,4.70
2015,03,01,03,00,4.60
2015,03,01,03,01,4.50
2015,03,01,03,02,4.50
2015,03,01,03,03,4.50
2015,03,01,03,04,4.40
2015,03,01,03,05,4.40
2015,03,01,03,06,4.40
2015,03,01,03,07,4.40
2015,03,01,03,08,4.40
2015,03,01,03,09,4.40
2015,03,01,03,10,4.30
2015,03,01,03,11,4.30
2015,03,01,03,12,4.20
2015,03,01,03,13,4.20
2015,03,01,03,14,4.20
2015,03,01,03,15,4.20
2015,03,01,03,16,4.20
2015,03,01,03,17,4.10
2015,03,01,03,18,4.00
2015,03,01,03,19,4.00
2015,03,01,03,20,3.90
2015,03,01,03,21,3.90
2015,03,01,03,22,3.80
2015,03,01,03,23,3.80
2015,03,01,03,24,3.80
2015,03,01,03,25,3.80
2015,03,01,03,26,3.80
2015,03,01,03,27,3.80
2015,03,01,03,28,3.80
2015,03,01,03,29,3.80
2015,03,01,03,30,3.80
2015,03,01,03,31,3.80
2015,03,01,03,32,3.70
2015,03,01,03,33,3.70
2015,03,01,03,34,3.70
2015,03,01,03,35,3.80
2015,03,01,03,36,3.80
2015,03,01,03,37,3.80
2015,03,01,03,38,3.80
2015,03,01,03,39,3.80
2015,03,01,03,40,3.80
2015,03,01,03,41,3.90
2015,03,01,03,42,3.90
2015,03,01,03,43,4.00
2015,03,01,03,44,4.00
2015,03,01,03,45,4.00
2015,03,01,03,46,4.00
2015,03,01,03,47,4.10
2015,03,01,03,48,4.10
2015,03,01,03,49,4.10
2015,03,01,03,50,4.10
2015,03,01,03,51,4.10
2015,03,01,03,52,4.00
2015,03,01,03,53,4.00
2015,03,01,03,54,4.00
2015,03,01,03,55,3.90
2015,03,01,03,56,3.80
2015,03,01,03,57,3.80
2015,03,01,03,58,3.80
2015,03,01,03,59,3.80
2015,03,01,04,00,3.80
2015,03,01,04,01,3.80
2015,03,01,04,02,3.80
2015,03,01,04,03,3.80
2015,03,01,04,04,3.80
2015,03,01,04,05,3.80
2015,03,01,04,06,3.80
2015,03,01,04,07,3.80
2015,03,01,04,08,3.80
2015,03,01,04,09,3.80
2015,03,01,04,10,3.90
2015,03,01,04,11,3.90
2015,03,01,04,12,4.00
2015,03,01,04,13,4.00
2015,03,01,04,14,4.00
2015,03,01,04,15,4.00
2015,03,01,04,16,4.00
2015,03,01,04,17,4.00
2015,03,01,04,18,4.00
2015,03,01,04,19,4.00
2015,03,01,04,20,3.90
2015,03,01,04,21,3.80
2015,03,01,04,22,3.80
2015,03,01,04,23,3.80
2015,03,01,04,24,3.80
2015,03,01,04,25,3.80
2015,03,01,04,26,3.80
2015,03,01,04,27,3.80
2015,03,01,04,28,3.80
2015,03,01,04,29,3.80
2015,03,01,04,30,3.80
2015,03,01,04,31,3.80
2015,03,01,04,32,3.80
2015,03,01,04,33,3.80
2015,03,01,04,34,3.80
2015,03,01,04,35,3.70
2015,03,01,04,36,3.70
2015,03,01,04,37,3.60
2015,03,01,04,38,3.60
2015,03,01,04,39,3.60
2015,03,01,04,40,3.50
2015,03,01,04,41,3.40
2015,03,01,04,42,3.40
2015,03,01,04,43,3.40
2015,03,01,04,44,3.30
2015,03,01,04,45,3.30
2015,03,01,04,46,3.30
2015,03,01,04,47,3.30
2015,03,01,04,48,3.20
2015,03,01,04,49,3.20
2015,03,01,04,50,3.10
2015,03,01,04,51,3.10
2015,03,01,04,52,3.00
2015,03,01,04,53,2.90
2015,03,01,04,54,2.90
2015,03,01,04,55,2.90
2015,03,01,04,56,2.80
2015,03,01,04,57,2.70
2015,03,01,04,58,2.70
2015,03,01,04,59,2.60
2015,03,01,05,00,2.60
2015,03,01,05,01,2.60
2015,03,01,05,02,2.50
2015,03,01,05,03,2.50
2015,03,01,05,04,2.50
2015,03,01,05,05,2.50
2015,03,01,05,06,2.50
2015,03,01,05,07,2.50
2015,03,01,05,08,2.50
2015,03,01,05,09,2.60
2015,03,01,05,10,2.60
2015,03,01,05,11,2.60
2015,03,01,05,12,2.60
2015,03,01,05,13,2.70
2015,03,01,05,14,2.70
2015,03,01,05,15,2.70
2015,03,01,05,16,2.70
2015,03,01,05,17,2.70
2015,03,01,05,18,2.70
2015,03,01,05,19,2.70
2015,03,01,05,20,2.70
2015,03,01,05,21,2.70
2015,03,01,05,22,2.70
2015,03,01,05,23,2.70
2015,03,01,05,24,2.70
2015,03,01,05,25,2.60
2015,03,01,05,26,2.60
2015,03,01,05,27,2.60
2015,03,01,05,28,2.60
2015,03,01,05,29,2.60
2015,03,01,05,30,2.60
2015,03,01,05,31,2.60
2015,03,01,05,32,2.60
2015,03,01,05,33,2.60
2015,03,01,05,34,2.60
2015,03,01,05,35,2.60
2015,03,01,05,36,2.50
2015,03,01,05,37,2.50
2015,03,01,05,38,2.50
2015,03,01,05,39,2.50
2015,03,01,05,40,2.50
2015,03,01,05,41,2.50
2015,03,01,05,42,2.50
2015,03,01,05,43,2.40
2015,03,01,05,44,2.40
2015,03,01,05,45,2.40
2015,03,01,05,46,2.40
2015,03,01,05,47,2.40
2015,03,01,05,48,2.40
2015,03,01,05,49,2.40
2015,03,01,05,50,2.50
2015,03,01,05,51,2.50
2015,03,01,05,52,2.50
2015,03,01,05,53,2.60
2015,03,01,05,54,2.70
2015,03,01,05,55,2.70
2015,03,01,05,56,2.80
2015,03,01,05,57,2.90
2015,03,01,05,58,2.90
2015,03,01,05,59,2.90
2015,03,01,06,00,2.90
2015,03,01,06,01,2.90
2015,03,01,06,02,2.90
2015,03,01,06,03,2.90
2015,03,01,06,04,2.90
2015,03,01,06,05,2.90
2015,03,01,06,06,2.90
2015,03,01,06,07,2.90
2015,03,01,06,08,2.90
2015,03,01,06,09,2.90
2015,03,01,06,10,2.90
2015,03,01,06,11,2.80
2015,03,01,06,12,2.80
2015,03,01,06,13,2.80
2015,03,01,06,14,2.80
2015,03,01,06,15,2.80
2015,03,01,06,16,2.80
2015,03,01,06,17,2.90
2015,03,01,06,18,2.90
2015,03,01,06,19,2.90
2015,03,01,06,20,2.90
2015,03,01,06,21,2.90
2015,03,01,06,22,2.90
2015,03,01,06,23,2.90
2015,03,01,06,24,3.00
2015,03,01,06,25,3.10
2015,03,01,06,26,3.10
2015,03,01,06,27,3.10
2015,03,01,06,28,3.10
2015,03,01,06,29,3.10
2015,03,01,06,30,3.10
2015,03,01,06,31,3.10
2015,03,01,06,32,3.10
2015,03,01,06,33,3.10
2015,03,01,06,34,3.10
2015,03,01,06,35,3.10
2015,03,01,06,36,3.10
2015,03,01,06,37,3.10
2015,03,01,06,38,3.10
2015,03,01,06,39,3.10
2015,03,01,06,40,3.00
2015,03,01,06,41,2.90
2015,03,01,06,42,2.90
2015,03,01,06,43,2.90
2015,03,01,06,44,2.90
2015,03,01,06,45,2.90
2015,03,01,06,46,2.90
2015,03,01,06,47,2.90
2015,03,01,06,48,2.90
2015,03,01,06,49,2.90
2015,03,01,06,50,2.90
2015,03,01,06,51,2.90
2015,03,01,06,52,2.90
2015,03,01,06,53,2.90
2015,03,01,06,54,2.90
2015,03,01,06,55,2.90
2015,03,01,06,56,2.90
2015,03,01,06,57,2.90
2015,03,01,06,58,2.90
2015,03,01,06,59,2.90
2015,03,01,07,00,2.90
2015,03,01,07,01,2.90
2015,03,01,07,02,2.90
2015,03,01,07,03,2.90
2015,03,01,07,04,2.90
2015,03,01,07,05,2.90
2015,03,01,07,06,2.90
2015,03,01,07,07,2.90
2015,03,01,07,08,2.90
2015,03,01,07,09,2.90
2015,03,01,07,10,2.90
2015,03,01,07,11,2.90
2015,03,01,07,12,2.90
2015,03,01,07,13,2.90
2015,03,01,07,14,2.90
2015,03,01,07,15,2.90
2015,03,01,07,16,2.90
2015,03,01,07,17,2.90
2015,03,01,07,18,2.90
2015,03,01,07,19,2.90
2015,03,01,07,20,2.80
2015,03,01,07,21,2.80
2015,03,01,07,22,2.80
2015,03,01,07,23,2.80
2015,03,01,07,24,2.80
2015,03,01,07,25,2.80
2015,03,01,07,26,2.80
2015,03,01,07,27,2.80
2015,03,01,07,28,2.80
2015,03,01,07,29,2.80
2015,03,01,07,30,2.90
2015,03,01,07,31,2.90
2015,03,01,07,32,2.90
2015,03,01,07,33,2.90
2015,03,01,07,34,2.90
2015,03,01,07,35,2.90
2015,03,01,07,36,2.90
2015,03,01,07,37,3.00
2015,03,01,07,38,3.10
2015,03,01,07,39,3.10
2015,03,01,07,40,3.10
2015,03,01,07,41,3.10
2015,03,01,07,42,3.10
2015,03,01,07,43,3.10
2015,03,01,07,44,3.10
2015,03,01,07,45,3.10
2015,03,01,07,46,3.20
2015,03,01,07,47,3.20
2015,03,01,07,48,3.20
2015,03,01,07,49,3.20
2015,03,01,07,50,3.20
2015,03,01,07,51,3.20
2015,03,01,07,52,3.20
2015,03,01,07,53,3.20
2015,03,01,07,54,3.20
2015,03,01,07,55,3.20
2015,03,01,07,56,3.20
2015,03,01,07,57,3.20
2015,03,01,07,58,3.20
2015,03,01,07,59,3.20
2015,03,01,08,00,3.20
2015,03,01,08,01,3.20
2015,03,01,08,02,3.20
2015,03,01,08,03,3.20
2015,03,01,08,04,3.30
2015,03,01,08,05,3.30
2015,03,01,08,06,3.30
2015,03,01,08,07,3.30
2015,03,01,08,08,3.30
2015,03,01,08,09,3.30
2015,03,01,08,10,3.30
2015,03,01,08,11,3.30
2015,03,01,08,12,3.30
2015,03,01,08,13,3.40
2015,03,01,08,14,3.50
2015,03,01,08,15,3.50
2015,03,01,08,16,3.60
2015,03,01,08,17,3.60
2015,03,01,08,18,3.70
2015,03,01,08,19,3.80
2015,03,01,08,20,3.80
2015,03,01,08,21,3.90
2015,03,01,08,22,4.00
2015,03,01,08,23,4.00
2015,03,01,08,24,4.10
2015,03,01,08,25,4.20
2015,03,01,08,26,4.30
2015,03,01,08,27,4.40
2015,03,01,08,28,4.40
2015,03,01,08,29,4.50
2015,03,01,08,30,4.60
2015,03,01,08,31,4.70
2015,03,01,08,32,4.80
2015,03,01,08,33,4.80
2015,03,01,08,34,4.90
2015,03,01,08,35,4.90
2015,03,01,08,36,5.00
2015,03,01,08,37,5.00
2015,03,01,08,38,4.90
2015,03,01,08,39,4.90
2015,03,01,08,40,4.90
2015,03,01,08,41,4.90
2015,03,01,08,42,4.90
2015,03,01,08,43,4.90
2015,03,01,08,44,4.90
2015,03,01,08,45,4.90
2015,03,01,08,46,4.90
2015,03,01,08,47,4.80
2015,03,01,08,48,4.80
2015,03,01,08,49,4.80
2015,03,01,08,50,4.80
2015,03,01,08,51,4.80
2015,03,01,08,52,4.90
2015,03,01,08,53,4.90
2015,03,01,08,54,4.90
2015,03,01,08,55,4.90
2015,03,01,08,56,4.90
2015,03,01,08,57,4.90
2015,03,01,08,58,4.90
2015,03,01,08,59,5.00
2015,03,01,09,00,5.10
2015,03,01,09,01,5.10
2015,03,01,09,02,5.10
2015,03,01,09,03,5.10
2015,03,01,09,04,5.00
2015,03,01,09,05,4.90
2015,03,01,09,06,4.90
2015,03,01,09,07,4.90
2015,03,01,09,08,4.90
2015,03,01,09,09,4.90
2015,03,01,09,10,4.90
2015,03,01,09,11,4.90
2015,03,01,09,12,4.90
2015,03,01,09,13,4.90
2015,03,01,09,14,5.00
2015,03,01,09,15,5.10
2015,03,01,09,16,5.10
2015,03,01,09,17,5.20
2015,03,01,09,18,5.20
2015,03,01,09,19,5.30
2015,03,01,09,20,5.30
2015,03,01,09,21,5.40
2015,03,01,09,22,5.40
2015,03,01,09,23,5.50
2015,03,01,09,24,5.50
2015,03,01,09,25,5.60
2015,03,01,09,26,5.60
2015,03,01,09,27,5.70
2015,03,01,09,28,5.70
2015,03,01,09,29,5.70
2015,03,01,09,30,5.70
2015,03,01,09,31,5.70
2015,03,01,09,32,5.70
2015,03,01,09,33,5.70
2015,03,01,09,34,5.80
2015,03,01,09,35,5.90
2015,03,01,09,36,5.90
2015,03,01,09,37,5.90
2015,03,01,09,38,5.90
2015,03,01,09,39,6.00
2015,03,01,09,40,6.00
2015,03,01,09,41,5.90
2015,03,01,09,42,5.80
2015,03,01,09,43,5.70
2015,03,01,09,44,5.70
2015,03,01,09,45,5.70
2015,03,01,09,46,5.70
2015,03,01,09,47,5.80
2015,03,01,09,48,5.90
2015,03,01,09,49,5.90
2015,03,01,09,50,6.00
2015,03,01,09,51,6.10
2015,03,01,09,52,6.20
2015,03,01,09,53,6.20
2015,03,01,09,54,6.20
2015,03,01,09,55,6.30
2015,03,01,09,56,6.40
2015,03,01,09,57,6.40
2015,03,01,09,58,6.60
2015,03,01,09,59,6.60
2015,03,01,10,00,6.60
2015,03,01,10,01,6.60
2015,03,01,10,02,6.60
2015,03,01,10,03,6.60
2015,03,01,10,04,6.60
2015,03,01,10,05,6.60
2015,03,01,10,06,6.60
2015,03,01,10,07,6.70
2015,03,01,10,08,6.70
2015,03,01,10,09,6.60
2015,03,01,10,10,6.60
2015,03,01,10,11,6.60
2015,03,01,10,12,6.60
2015,03,01,10,13,6.60
2015,03,01,10,14,6.60
2015,03,01,10,15,6.60
2015,03,01,10,16,6.50
2015,03,01,10,17,6.40
2015,03,01,10,18,6.40
2015,03,01,10,19,6.50
2015,03,01,10,20,6.40
2015,03,01,10,21,6.40
2015,03,01,10,22,6.40
2015,03,01,10,23,6.40
2015,03,01,10,24,6.40
2015,03,01,10,25,6.40
2015,03,01,10,26,6.40
2015,03,01,10,27,6.40
2015,03,01,10,28,6.50
2015,03,01,10,29,6.60
2015,03,01,10,30,6.60
2015,03,01,10,31,6.60
2015,03,01,10,32,6.50
2015,03,01,10,33,6.40
2015,03,01,10,34,6.40
2015,03,01,10,35,6.40
2015,03,01,10,36,6.50
2015,03,01,10,37,6.60
2015,03,01,10,38,6.60
2015,03,01,10,39,6.60
2015,03,01,10,40,6.60
2015,03,01,10,41,6.60
2015,03,01,10,42,6.60
2015,03,01,10,43,6.50
2015,03,01,10,44,6.40
2015,03,01,10,45,6.40
2015,03,01,10,46,6.40
2015,03,01,10,47,6.40
2015,03,01,10,48,6.40
2015,03,01,10,49,6.40
2015,03,01,10,50,6.40
2015,03,01,10,51,6.40
2015,03,01,10,52,6.40
2015,03,01,10,53,6.40
2015,03,01,10,54,6.50
2015,03,01,10,55,6.60
2015,03,01,10,56,6.70
2015,03,01,10,57,6.80
2015,03,01,10,58,6.90
2015,03,01,10,59,7.00
2015,03,01,11,00,7.00
2015,03,01,11,01,7.10
2015,03,01,11,02,7.10
2015,03,01,11,03,7.10
2015,03,01,11,04,7.10
2015,03,01,11,05,7.10
2015,03,01,11,06,7.10
2015,03,01,11,07,7.20
2015,03,01,11,08,7.20
2015,03,01,11,09,7.30
2015,03,01,11,10,7.20
2015,03,01,11,11,7.20
2015,03,01,11,12,7.20
2015,03,01,11,13,7.20
2015,03,01,11,14,7.30
2015,03,01,11,15,7.30
2015,03,01,11,16,7.30
2015,03,01,11,17,7.30
2015,03,01,11,18,7.30
2015,03,01,11,19,7.30
2015,03,01,11,20,7.30
2015,03,01,11,21,7.30
2015,03,01,11,22,7.20
2015,03,01,11,23,7.20
2015,03,01,11,24,7.10
2015,03,01,11,25,7.20
2015,03,01,11,26,7.20
2015,03,01,11,27,7.20
2015,03,01,11,28,7.30
2015,03,01,11,29,7.30
2015,03,01,11,30,7.30
2015,03,01,11,31,7.40
2015,03,01,11,32,7.40
2015,03,01,11,33,7.30
2015,03,01,11,34,7.30
2015,03,01,11,35,7.30
2015,03,01,11,36,7.40
2015,03,01,11,37,7.40
2015,03,01,11,38,7.50
2015,03,01,11,39,7.60
2015,03,01,11,40,7.60
2015,03,01,11,41,7.70
2015,03,01,11,42,7.60
2015,03,01,11,43,7.60
2015,03,01,11,44,7.60
2015,03,01,11,45,7.60
2015,03,01,11,46,7.50
2015,03,01,11,47,7.50
2015,03,01,11,48,7.50
2015,03,01,11,49,7.60
2015,03,01,11,50,7.60
2015,03,01,11,51,7.70
2015,03,01,11,52,7.70
2015,03,01,11,53,7.80
2015,03,01,11,54,7.80
2015,03,01,11,55,7.90
2015,03,01,11,56,7.90
2015,03,01,11,57,7.80
2015,03,01,11,58,7.80
2015,03,01,11,59,7.90
2015,03,01,12,00,7.90
2015,03,01,12,01,8.00
2015,03,01,12,02,8.00
2015,03,01,12,03,8.00
2015,03,01,12,04,8.00
2015,03,01,12,05,8.00
2015,03,01,12,06,8.00
2015,03,01,12,07,8.00
2015,03,01,12,08,8.00
2015,03,01,12,09,8.00
2015,03,01,12,10,8.00
2015,03,01,12,11,7.90
2015,03,01,12,12,7.90
2015,03,01,12,13,7.90
2015,03,01,12,14,7.90
2015,03,01,12,15,7.80
2015,03,01,12,16,7.80
2015,03,01,12,17,7.80
2015,03,01,12,18,7.80
2015,03,01,12,19,7.70
2015,03,01,12,20,7.80
2015,03,01,12,21,7.70
2015,03,01,12,22,7.70
2015,03,01,12,23,7.70
2015,03,01,12,24,7.70
2015,03,01,12,25,7.60
2015,03,01,12,26,7.60
2015,03,01,12,27,7.60
2015,03,01,12,28,7.50
2015,03,01,12,29,7.50
2015,03,01,12,30,7.40
2015,03,01,12,31,7.30
2015,03,01,12,32,7.30
2015,03,01,12,33,7.20
2015,03,01,12,34,7.20
2015,03,01,12,35,7.20
2015,03,01,12,36,7.30
2015,03,01,12,37,7.30
2015,03,01,12,38,7.30
2015,03,01,12,39,7.30
2015,03,01,12,40,7.40
2015,03,01,12,41,7.40
2015,03,01,12,42,7.40
2015,03,01,12,43,7.40
2015,03,01,12,44,7.40
2015,03,01,12,45,7.50
2015,03,01,12,46,7.50
2015,03,01,12,47,7.50
2015,03,01,12,48,7.40
2015,03,01,12,49,7.40
2015,03,01,12,50,7.50
2015,03,01,12,51,7.50
2015,03,01,12,52,7.50
2015,03,01,12,53,7.60
2015,03,01,12,54,7.50
2015,03,01,12,55,7.50
2015,03,01,12,56,7.50
2015,03,01,12,57,7.50
2015,03,01,12,58,7.50
2015,03,01,12,59,7.40
2015,03,01,13,00,7.50
2015,03,01,13,01,7.40
2015,03,01,13,02,7.40
2015,03,01,13,03,7.30
2015,03,01,13,04,7.30
2015,03,01,13,05,7.30
2015,03,01,13,06,7.30
2015,03,01,13,07,7.20
2015,03,01,13,08,7.20
2015,03,01,13,09,7.30
2015,03,01,13,10,7.30
2015,03,01,13,11,7.30
2015,03,01,13,12,7.30
2015,03,01,13,13,7.30
2015,03,01,13,14,7.30
2015,03,01,13,15,7.20
2015,03,01,13,16,7.20
2015,03,01,13,17,7.20
2015,03,01,13,18,7.10
2015,03,01,13,19,7.10
2015,03,01,13,20,7.10
2015,03,01,13,21,7.10
2015,03,01,13,22,7.20
2015,03,01,13,23,7.20
2015,03,01,13,24,7.30
2015,03,01,13,25,7.20
2015,03,01,13,26,7.30
2015,03,01,13,27,7.30
2015,03,01,13,28,7.30
2015,03,01,13,29,7.30
2015,03,01,13,30,7.30
2015,03,01,13,31,7.30
2015,03,01,13,32,7.30
2015,03,01,13,33,7.30
2015,03,01,13,34,7.30
2015,03,01,13,35,7.30
2015,03,01,13,36,7.40
2015,03,01,13,37,7.40
2015,03,01,13,38,7.40
2015,03,01,13,39,7.40
2015,03,01,13,40,7.40
2015,03,01,13,41,7.50
2015,03,01,13,42,7.50
2015,03,01,13,43,7.50
2015,03,01,13,44,7.50
2015,03,01,13,45,7.50
2015,03,01,13,46,7.50
2015,03,01,13,47,7.50
2015,03,01,13,48,7.60
2015,03,01,13,49,7.60
2015,03,01,13,50,7.60
2015,03,01,13,51,7.60
2015,03,01,13,52,7.70
2015,03,01,13,53,7.70
2015,03,01,13,54,7.80
2015,03,01,13,55,7.80
2015,03,01,13,56,7.80
2015,03,01,13,57,7.80
2015,03,01,13,58,7.80
2015,03,01,13,59,7.90
2015,03,01,14,00,7.90
2015,03,01,14,01,7.90
2015,03,01,14,02,8.00
2015,03,01,14,03,8.00
2015,03,01,14,04,8.00
2015,03,01,14,05,8.00
2015,03,01,14,06,8.10
2015,03,01,14,07,8.10
2015,03,01,14,08,8.10
2015,03,01,14,09,8.10
2015,03,01,14,10,8.10
2015,03,01,14,11,8.10
2015,03,01,14,12,8.10
2015,03,01,14,13,8.10
2015,03,01,14,14,8.10
2015,03,01,14,15,8.20
2015,03,01,14,16,8.20
2015,03,01,14,17,8.20
2015,03,01,14,18,8.20
2015,03,01,14,19,8.10
2015,03,01,14,20,8.10
2015,03,01,14,21,8.10
2015,03,01,14,22,8.10
2015,03,01,14,23,8.10
2015,03,01,14,24,8.10
2015,03,01,14,25,8.10
2015,03,01,14,26,8.20
2015,03,01,14,27,8.20
2015,03,01,14,28,8.20
2015,03,01,14,29,8.20
2015,03,01,14,30,8.20
2015,03,01,14,31,8.20
2015,03,01,14,32,8.20
2015,03,01,14,33,8.20
2015,03,01,14,34,8.10
2015,03,01,14,35,8.10
2015,03,01,14,36,8.10
2015,03,01,14,37,8.10
2015,03,01,14,38,8.10
2015,03,01,14,39,8.10
2015,03,01,14,40,8.10
2015,03,01,14,41,8.10
2015,03,01,14,42,8.10
2015,03,01,14,43,8.10
2015,03,01,14,44,8.10
2015,03,01,14,45,8.00
2015,03,01,14,46,8.00
2015,03,01,14,47,8.00
2015,03,01,14,48,8.00
2015,03,01,14,49,7.90
2015,03,01,14,50,7.90
2015,03,01,14,51,7.90
2015,03,01,14,52,7.90
2015,03,01,14,53,7.80
2015,03,01,14,54,7.80
2015,03,01,14,55,7.80
2015,03,01,14,56,7.80
2015,03,01,14,57,7.80
2015,03,01,14,58,7.80
2015,03,01,14,59,7.80
2015,03,01,15,00,7.80
2015,03,01,15,01,7.80
2015,03,01,15,02,7.80
2015,03,01,15,03,7.80
2015,03,01,15,04,7.90
2015,03,01,15,05,7.90
2015,03,01,15,06,7.90
2015,03,01,15,07,7.90
2015,03,01,15,08,7.90
2015,03,01,15,09,7.90
2015,03,01,15,10,7.90
2015,03,01,15,11,7.90
2015,03,01,15,12,7.90
2015,03,01,15,13,7.90
2015,03,01,15,14,7.90
2015,03,01,15,15,7.80
2015,03,01,15,16,7.80
2015,03,01,15,17,7.80
2015,03,01,15,18,7.80
2015,03,01,15,19,7.90
2015,03,01,15,20,7.90
2015,03,01,15,21,7.90
2015,03,01,15,22,7.90
2015,03,01,15,23,7.90
2015,03,01,15,24,7.90
2015,03,01,15,25,7.90
2015,03,01,15,26,7.90
2015,03,01,15,27,7.90
2015,03,01,15,28,7.90
2015,03,01,15,29,7.90
2015,03,01,15,30,7.90
2015,03,01,15,31,7.90
2015,03,01,15,32,7.90
2015,03,01,15,33,8.00
2015,03,01,15,34,8.00
2015,03,01,15,35,8.00
2015,03,01,15,36,8.00
2015,03,01,15,37,8.00
2015,03,01,15,38,8.00
2015,03,01,15,39,8.00
2015,03,01,15,40,8.00
2015,03,01,15,41,8.00
2015,03,01,15,42,8.00
2015,03,01,15,43,8.10
2015,03,01,15,44,8.10
2015,03,01,15,45,8.10
2015,03,01,15,46,8.10
2015,03,01,15,47,8.10
2015,03,01,15,48,8.10
2015,03,01,15,49,8.10
2015,03,01,15,50,8.10
2015,03,01,15,51,8.10
2015,03,01,15,52,8.10
2015,03,01,15,53,8.10
2015,03,01,15,54,8.10
2015,03,01,15,55,8.10
2015,03,01,15,56,8.10
2015,03,01,15,57,8.10
2015,03,01,15,58,8.10
2015,03,01,15,59,8.10
2015,03,01,16,00,8.10
2015,03,01,16,01,8.10
2015,03,01,16,02,8.10
2015,03,01,16,03,8.10
2015,03,01,16,04,8.10
2015,03,01,16,05,8.20
2015,03,01,16,06,8.20
2015,03,01,16,07,8.20
2015,03,01,16,08,8.20
2015,03,01,16,09,8.10
2015,03,01,16,10,8.10
2015,03,01,16,11,8.00
2015,03,01,16,12,8.00
2015,03,01,16,13,7.90
2015,03,01,16,14,7.80
2015,03,01,16,15,7.80
2015,03,01,16,16,7.70
2015,03,01,16,17,7.60
2015,03,01,16,18,7.50
2015,03,01,16,19,7.50
2015,03,01,16,20,7.50
2015,03,01,16,21,7.50
2015,03,01,16,22,7.40
2015,03,01,16,23,7.40
2015,03,01,16,24,7.30
2015,03,01,16,25,7.30
2015,03,01,16,26,7.30
2015,03,01,16,27,7.30
2015,03,01,16,28,7.30
2015,03,01,16,29,7.30
2015,03,01,16,30,7.30
2015,03,01,16,31,7.20
2015,03,01,16,32,7.20
2015,03,01,16,33,7.20
2015,03,01,16,34,7.20
2015,03,01,16,35,7.20
2015,03,01,16,36,7.20
2015,03,01,16,37,7.20
2015,03,01,16,38,7.20
2015,03,01,16,39,7.20
2015,03,01,16,40,7.20
2015,03,01,16,41,7.20
2015,03,01,16,42,7.20
2015,03,01,16,43,7.10
2015,03,01,16,44,7.10
2015,03,01,16,45,7.10
2015,03,01,16,46,7.10
2015,03,01,16,47,7.10
2015,03,01,16,48,7.00
2015,03,01,16,49,7.00
2015,03,01,16,50,7.00
2015,03,01,16,51,7.00
2015,03,01,16,52,7.00
2015,03,01,16,53,7.00
2015,03,01,16,54,6.90
2015,03,01,16,55,6.90
2015,03,01,16,56,6.90
2015,03,01,16,57,7.00
2015,03,01,16,58,7.00
2015,03,01,16,59,7.00
2015,03,01,17,00,7.00
2015,03,01,17,01,7.00
2015,03,01,17,02,7.10
2015,03,01,17,03,7.10
2015,03,01,17,04,7.10
2015,03,01,17,05,7.10
2015,03,01,17,06,7.10
2015,03,01,17,07,7.10
2015,03,01,17,08,7.10
2015,03,01,17,09,7.10
2015,03,01,17,10,7.10
2015,03,01,17,11,7.10
2015,03,01,17,12,7.10
2015,03,01,17,13,7.10
2015,03,01,17,14,7.10
2015,03,01,17,15,7.00
2015,03,01,17,16,7.00
2015,03,01,17,17,7.00
2015,03,01,17,18,6.90
2015,03,01,17,19,6.90
2015,03,01,17,20,6.80
2015,03,01,17,21,6.80
2015,03,01,17,22,6.80
2015,03,01,17,23,6.80
2015,03,01,17,24,6.80
2015,03,01,17,25,6.80
2015,03,01,17,26,6.80
2015,03,01,17,27,6.80
2015,03,01,17,28,6.80
2015,03,01,17,29,6.80
2015,03,01,17,30,6.80
2015,03,01,17,31,6.80
2015,03,01,17,32,6.80
2015,03,01,17,33,6.80
2015,03,01,17,34,6.80
2015,03,01,17,35,6.80
2015,03,01,17,36,6.80
2015,03,01,17,37,6.80
2015,03,01,17,38,6.80
2015,03,01,17,39,6.80
2015,03,01,17,40,6.80
2015,03,01,17,41,6.70
2015,03,01,17,42,6.70
2015,03,01,17,43,6.70
2015,03,01,17,44,6.70
2015,03,01,17,45,6.70
2015,03,01,17,46,6.70
2015,03,01,17,47,6.70
2015,03,01,17,48,6.60
2015,03,01,17,49,6.60
2015,03,01,17,50,6.60
2015,03,01,17,51,6.60
2015,03,01,17,52,6.60
2015,03,01,17,53,6.60
2015,03,01,17,54,6.60
2015,03,01,17,55,6.60
2015,03,01,17,56,6.60
2015,03,01,17,57,6.60
2015,03,01,17,58,6.60
2015,03,01,17,59,6.60
2015,03,01,18,00,6.50
2015,03,01,18,01,6.40
2015,03,01,18,02,6.40
2015,03,01,18,03,6.40
2015,03,01,18,04,6.40
2015,03,01,18,05,6.40
2015,03,01,18,06,6.30